ITY21D LIRF-LGIR

Flight info

Callsign ITY21D
Flight time 1h 37m
Altitude 35000
Route SIPRO DCT IPKAM DCT KUTID DCT ARBUM DCT KOGEB DCT RUTOM UM601 MIL UL617 XAVIS
Aircraft A320/M-SDE3FGHIRWY/LB1

Departure

Time 2026-05-07 09:38
Airport Rome–Fiumicino Leonardo da Vinci International Airport (LIRF)

Arrival

Time 2026-05-07 11:16
Airport Heraklion International Nikos Kazantzakis Airport (LGIR)
Time Latitude Longitude Altitude Speed Heading
2026-05-07 09:25 41.79739 12.25850 15 ft 0 kts 116°
2026-05-07 09:29 41.79740 12.25850 15 ft 0 kts 116°
2026-05-07 09:30 41.79744 12.25839 16 ft 4 kts 116°
2026-05-07 09:30 41.79752 12.25818 17 ft 4 kts 117°
2026-05-07 09:30 41.79761 12.25794 17 ft 2 kts 100°
2026-05-07 09:31 41.79760 12.25779 17 ft 2 kts 37°
2026-05-07 09:31 41.79751 12.25771 20 ft 2 kts 27°
2026-05-07 09:31 41.79748 12.25768 19 ft 0 kts 28°
2026-05-07 09:32 41.79762 12.25779 16 ft 5 kts 28°
2026-05-07 09:32 41.79798 12.25802 17 ft 12 kts 25°
2026-05-07 09:32 41.79902 12.25840 15 ft 17 kts 24°
2026-05-07 09:32 41.80014 12.25910 15 ft 20 kts 25°
2026-05-07 09:33 41.80155 12.25995 15 ft 24 kts 23°
2026-05-07 09:33 41.80315 12.26095 16 ft 16 kts 24°
2026-05-07 09:33 41.80418 12.26156 15 ft 16 kts 23°
2026-05-07 09:33 41.80518 12.26216 17 ft 15 kts 44°
2026-05-07 09:34 41.80561 12.26346 15 ft 15 kts 70°
2026-05-07 09:34 41.80596 12.26480 16 ft 16 kts 71°
2026-05-07 09:34 41.80634 12.26622 17 ft 17 kts 70°
2026-05-07 09:34 41.80676 12.26774 15 ft 18 kts 69°
2026-05-07 09:35 41.80705 12.26877 16 ft 6 kts 69°
2026-05-07 09:35 41.80708 12.26886 15 ft 0 kts 69°
2026-05-07 09:35 41.80708 12.26888 15 ft 2 kts 69°
2026-05-07 09:35 41.80728 12.26962 15 ft 14 kts 71°
2026-05-07 09:36 41.80795 12.27045 15 ft 15 kts 358°
2026-05-07 09:36 41.80894 12.27004 17 ft 15 kts 339°
2026-05-07 09:36 41.80958 12.26920 13 ft 9 kts 257°
2026-05-07 09:36 41.80954 12.26908 13 ft 0 kts 250°
2026-05-07 09:37 41.80953 12.26904 13 ft 6 kts 250°
2026-05-07 09:37 41.80850 12.26527 16 ft 79 kts 250°
2026-05-07 09:38 41.80582 12.25571 17 ft 138 kts 250°
2026-05-07 09:38 41.80203 12.24191 209 ft 164 kts 250°
2026-05-07 09:38 41.79815 12.22743 784 ft 168 kts 249°
2026-05-07 09:38 41.79410 12.21257 1388 ft 172 kts 257°
2026-05-07 09:39 41.79524 12.19662 1850 ft 184 kts 296°
2026-05-07 09:39 41.80268 12.18144 2118 ft 207 kts 305°
2026-05-07 09:39 41.81147 12.16473 2466 ft 231 kts 305°
2026-05-07 09:39 41.82090 12.14667 3101 ft 240 kts 305°
2026-05-07 09:40 41.83050 12.12816 3900 ft 243 kts 304°
2026-05-07 09:40 41.84018 12.10938 4704 ft 246 kts 303°
2026-05-07 09:40 41.84868 12.08909 5368 ft 259 kts 283°
2026-05-07 09:40 41.84795 12.06495 5940 ft 267 kts 248°
2026-05-07 09:41 41.83661 12.04546 6684 ft 271 kts 214°
2026-05-07 09:41 41.81869 12.03781 7438 ft 277 kts 181°
2026-05-07 09:41 41.80003 12.04475 8137 ft 286 kts 152°
2026-05-07 09:41 41.78354 12.05999 8917 ft 291 kts 144°
2026-05-07 09:42 41.76791 12.07759 9681 ft 296 kts 141°
2026-05-07 09:42 41.75235 12.09601 10327 ft 304 kts 141°
2026-05-07 09:42 41.73583 12.11526 10533 ft 327 kts 142°
2026-05-07 09:42 41.71783 12.13554 10689 ft 350 kts 143°
2026-05-07 09:43 41.69917 12.15805 10817 ft 374 kts 133°
2026-05-07 09:43 41.68540 12.18863 10942 ft 398 kts 111°
2026-05-07 09:43 41.68052 12.22571 11246 ft 412 kts 94°
2026-05-07 09:43 41.67896 12.26427 11778 ft 417 kts 97°
2026-05-07 09:44 41.67192 12.30179 12340 ft 417 kts 115°
2026-05-07 09:44 41.65710 12.33496 12937 ft 416 kts 131°
2026-05-07 09:44 41.63827 12.36442 13564 ft 418 kts 133°
2026-05-07 09:44 41.61913 12.39384 14118 ft 420 kts 134°
2026-05-07 09:45 41.59983 12.42338 14634 ft 423 kts 134°
2026-05-07 09:45 41.58065 12.45274 15116 ft 426 kts 134°
2026-05-07 09:45 41.56110 12.48275 15600 ft 430 kts 134°
2026-05-07 09:45 41.54142 12.51296 16061 ft 433 kts 134°
2026-05-07 09:46 41.52160 12.54337 16513 ft 436 kts 134°
2026-05-07 09:46 41.50320 12.57587 16923 ft 444 kts 124°
2026-05-07 09:46 41.48785 12.61206 17370 ft 448 kts 122°
2026-05-07 09:46 41.47260 12.64851 17780 ft 451 kts 122°
2026-05-07 09:47 41.45734 12.68522 18199 ft 454 kts 122°
2026-05-07 09:47 41.44193 12.72226 18566 ft 457 kts 123°
2026-05-07 09:47 41.42641 12.75938 18923 ft 460 kts 123°
2026-05-07 09:47 41.41075 12.79663 19314 ft 462 kts 123°
2026-05-07 09:48 41.39500 12.83405 19658 ft 464 kts 123°
2026-05-07 09:48 41.37941 12.87109 19981 ft 466 kts 123°
2026-05-07 09:48 41.36329 12.90923 20298 ft 468 kts 123°
2026-05-07 09:48 41.34727 12.94701 20606 ft 469 kts 123°
2026-05-07 09:49 41.33119 12.98493 20901 ft 471 kts 123°
2026-05-07 09:49 41.31507 13.02296 21199 ft 473 kts 123°
2026-05-07 09:49 41.29889 13.06115 21488 ft 475 kts 123°
2026-05-07 09:49 41.28262 13.09945 21769 ft 477 kts 123°
2026-05-07 09:50 41.26626 13.13790 22054 ft 478 kts 123°
2026-05-07 09:50 41.24984 13.17647 22323 ft 480 kts 123°
2026-05-07 09:50 41.23357 13.21462 22570 ft 481 kts 123°
2026-05-07 09:51 41.18534 13.32765 23269 ft 485 kts 123°
2026-05-07 09:51 41.16843 13.36716 23503 ft 487 kts 123°
2026-05-07 09:51 41.15165 13.40627 23695 ft 488 kts 123°
2026-05-07 09:52 41.13501 13.44494 23879 ft 489 kts 123°
2026-05-07 09:52 41.11815 13.48408 24125 ft 488 kts 123°
2026-05-07 09:52 41.10128 13.52320 24358 ft 488 kts 123°
2026-05-07 09:52 41.08440 13.56224 24589 ft 489 kts 123°
2026-05-07 09:53 41.06749 13.60136 24829 ft 488 kts 123°
2026-05-07 09:53 41.05061 13.64047 25074 ft 489 kts 123°
2026-05-07 09:53 41.03375 13.67949 25309 ft 489 kts 123°
2026-05-07 09:53 41.01680 13.71854 25551 ft 489 kts 123°
2026-05-07 09:54 40.99983 13.75756 25805 ft 489 kts 123°
2026-05-07 09:54 40.98286 13.79658 26051 ft 489 kts 123°
2026-05-07 09:54 40.96585 13.83563 26290 ft 490 kts 123°
2026-05-07 09:54 40.94881 13.87466 26534 ft 490 kts 123°
2026-05-07 09:55 40.93175 13.91372 26776 ft 491 kts 123°
2026-05-07 09:55 40.91468 13.95283 27025 ft 491 kts 123°
2026-05-07 09:55 40.89759 13.99196 27274 ft 492 kts 123°
2026-05-07 09:55 40.88047 14.03108 27535 ft 492 kts 123°
2026-05-07 09:56 40.86331 14.07021 27825 ft 493 kts 123°
2026-05-07 09:56 40.84608 14.10943 28102 ft 493 kts 123°
2026-05-07 09:56 40.82885 14.14865 28372 ft 494 kts 123°
2026-05-07 09:56 40.81159 14.18782 28648 ft 494 kts 123°
2026-05-07 09:57 40.79427 14.22704 28933 ft 495 kts 123°
2026-05-07 09:57 40.77692 14.26631 29184 ft 496 kts 123°
2026-05-07 09:57 40.75953 14.30568 29447 ft 496 kts 123°
2026-05-07 09:57 40.74215 14.34503 29709 ft 497 kts 123°
2026-05-07 09:58 40.72471 14.38447 29967 ft 498 kts 123°
2026-05-07 09:58 40.70723 14.42391 30213 ft 498 kts 123°
2026-05-07 09:58 40.68968 14.46341 30446 ft 499 kts 123°
2026-05-07 09:58 40.67211 14.50282 30671 ft 499 kts 123°
2026-05-07 09:59 40.65452 14.54224 30906 ft 499 kts 124°
2026-05-07 09:59 40.63694 14.58163 31161 ft 499 kts 124°
2026-05-07 09:59 40.61933 14.62112 31396 ft 500 kts 124°
2026-05-07 09:59 40.60173 14.66054 31656 ft 499 kts 124°
2026-05-07 10:00 40.58436 14.69941 31903 ft 499 kts 124°
2026-05-07 10:00 40.56673 14.73876 32162 ft 499 kts 124°
2026-05-07 10:00 40.54909 14.77806 32389 ft 500 kts 124°
2026-05-07 10:00 40.53118 14.81789 32631 ft 500 kts 124°
2026-05-07 10:01 40.51367 14.85671 32869 ft 500 kts 124°
2026-05-07 10:01 40.49571 14.89647 33109 ft 500 kts 124°
2026-05-07 10:01 40.47823 14.93522 33341 ft 500 kts 124°
2026-05-07 10:01 40.46048 14.97455 33578 ft 500 kts 124°
2026-05-07 10:02 40.44271 15.01380 33826 ft 500 kts 124°
2026-05-07 10:02 40.42493 15.05303 34071 ft 500 kts 124°
2026-05-07 10:02 40.40702 15.09250 34265 ft 501 kts 124°
2026-05-07 10:02 40.38916 15.13176 34453 ft 502 kts 124°
2026-05-07 10:03 40.37126 15.17108 34645 ft 502 kts 124°
2026-05-07 10:03 40.35336 15.21040 34842 ft 503 kts 124°
2026-05-07 10:03 40.33542 15.24979 34994 ft 504 kts 124°
2026-05-07 10:04 40.29912 15.32931 35033 ft 512 kts 124°
2026-05-07 10:04 40.26240 15.40955 35041 ft 515 kts 125°
2026-05-07 10:05 40.22551 15.48996 35034 ft 515 kts 125°
2026-05-07 10:05 40.18875 15.56990 35032 ft 516 kts 124°
2026-05-07 10:06 40.15164 15.65028 35045 ft 517 kts 124°
2026-05-07 10:06 40.11416 15.73115 35036 ft 518 kts 125°
2026-05-07 10:07 40.07686 15.81159 35039 ft 517 kts 124°
2026-05-07 10:07 40.03956 15.89191 35034 ft 517 kts 124°
2026-05-07 10:08 40.00223 15.97207 35044 ft 517 kts 125°
2026-05-07 10:08 39.96508 16.05139 35048 ft 516 kts 124°
2026-05-07 10:09 39.92750 16.13140 35041 ft 516 kts 125°
2026-05-07 10:09 39.88997 16.21112 35044 ft 517 kts 124°
2026-05-07 10:10 39.85245 16.29097 35045 ft 517 kts 125°
2026-05-07 10:10 39.81486 16.37056 35040 ft 517 kts 125°
2026-05-07 10:11 39.77703 16.45025 35048 ft 517 kts 125°
2026-05-07 10:11 39.73927 16.52986 35051 ft 517 kts 125°
2026-05-07 10:12 39.70149 16.60938 35053 ft 517 kts 125°
2026-05-07 10:12 39.66360 16.68881 35058 ft 517 kts 125°
2026-05-07 10:13 39.62565 16.76800 35066 ft 516 kts 125°
2026-05-07 10:13 39.58797 16.84663 35069 ft 516 kts 125°
2026-05-07 10:14 39.55000 16.92565 35074 ft 516 kts 125°
2026-05-07 10:14 39.51200 17.00456 35075 ft 516 kts 125°
2026-05-07 10:15 39.47396 17.08340 35083 ft 516 kts 126°
2026-05-07 10:15 39.43574 17.16214 35094 ft 516 kts 126°
2026-05-07 10:16 39.39755 17.24077 35097 ft 516 kts 126°
2026-05-07 10:16 39.35935 17.31934 35094 ft 515 kts 126°
2026-05-07 10:17 39.32112 17.39773 35101 ft 515 kts 126°
2026-05-07 10:17 39.28280 17.47601 35106 ft 516 kts 126°
2026-05-07 10:18 39.24470 17.55376 35101 ft 516 kts 126°
2026-05-07 10:18 39.20597 17.63251 35106 ft 516 kts 126°
2026-05-07 10:19 39.16747 17.71064 35109 ft 516 kts 126°
2026-05-07 10:19 39.12890 17.78865 35104 ft 516 kts 126°
2026-05-07 10:20 39.09050 17.86609 35111 ft 516 kts 126°
2026-05-07 10:20 39.05182 17.94398 35110 ft 516 kts 126°
2026-05-07 10:21 39.01303 18.02194 35109 ft 516 kts 126°
2026-05-07 10:21 38.97437 18.09975 35110 ft 517 kts 126°
2026-05-07 10:22 38.93558 18.17743 35109 ft 517 kts 126°
2026-05-07 10:22 38.89662 18.25500 35108 ft 516 kts 126°
2026-05-07 10:23 38.85782 18.33208 35102 ft 517 kts 126°
2026-05-07 10:23 38.81884 18.40952 35108 ft 517 kts 126°
2026-05-07 10:24 38.77981 18.48686 35098 ft 517 kts 126°
2026-05-07 10:24 38.74068 18.56423 35104 ft 516 kts 126°
2026-05-07 10:25 38.70151 18.64137 35112 ft 516 kts 126°
2026-05-07 10:25 38.66227 18.71834 35123 ft 516 kts 126°
2026-05-07 10:26 38.62310 18.79507 35123 ft 515 kts 126°
2026-05-07 10:26 38.58401 18.87172 35123 ft 514 kts 126°
2026-05-07 10:27 38.54518 18.94780 35124 ft 514 kts 126°
2026-05-07 10:27 38.51118 19.02828 35123 ft 518 kts 112°
2026-05-07 10:28 38.49189 19.10129 35122 ft 518 kts 110°
2026-05-07 10:28 38.46900 19.18847 35125 ft 518 kts 110°
2026-05-07 10:29 38.44594 19.27559 35129 ft 517 kts 110°
2026-05-07 10:29 38.42291 19.36240 35132 ft 517 kts 110°
2026-05-07 10:30 38.38842 19.49243 35138 ft 515 kts 110°
2026-05-07 10:30 38.36534 19.57883 35140 ft 514 kts 110°
2026-05-07 10:31 38.34219 19.66501 35141 ft 514 kts 110°
2026-05-07 10:31 38.31904 19.75095 35139 ft 513 kts 110°
2026-05-07 10:32 38.29593 19.83678 35141 ft 512 kts 110°
2026-05-07 10:32 38.27281 19.92244 35142 ft 511 kts 110°
2026-05-07 10:33 38.24903 20.00755 35140 ft 510 kts 112°
2026-05-07 10:33 38.22304 20.09150 35144 ft 509 kts 114°
2026-05-07 10:34 38.19646 20.17487 35150 ft 508 kts 114°
2026-05-07 10:34 38.17049 20.25797 35150 ft 508 kts 113°
2026-05-07 10:35 38.14470 20.34150 35155 ft 508 kts 113°
2026-05-07 10:35 38.11891 20.42495 35158 ft 507 kts 113°
2026-05-07 10:36 38.09293 20.50813 35157 ft 507 kts 113°
2026-05-07 10:36 38.06684 20.59123 35155 ft 506 kts 113°
2026-05-07 10:37 38.04072 20.67415 35155 ft 506 kts 113°
2026-05-07 10:37 38.01468 20.75703 35154 ft 505 kts 113°
2026-05-07 10:38 37.98428 20.83692 35155 ft 503 kts 120°
2026-05-07 10:38 37.95098 20.91505 35157 ft 502 kts 120°
2026-05-07 10:39 37.91758 20.99275 35158 ft 502 kts 120°
2026-05-07 10:39 37.88449 21.06990 35155 ft 501 kts 120°
2026-05-07 10:40 37.85131 21.14744 35159 ft 501 kts 120°
2026-05-07 10:40 37.81801 21.22496 35157 ft 501 kts 120°
2026-05-07 10:41 37.78469 21.30212 35158 ft 500 kts 120°
2026-05-07 10:41 37.75133 21.37933 35155 ft 500 kts 120°
2026-05-07 10:42 37.71800 21.45637 35157 ft 500 kts 120°
2026-05-07 10:42 37.68456 21.53329 35153 ft 499 kts 120°
2026-05-07 10:43 37.65113 21.61008 35156 ft 499 kts 120°
2026-05-07 10:43 37.61767 21.68688 35158 ft 499 kts 120°
2026-05-07 10:44 37.58418 21.76356 35155 ft 499 kts 120°
2026-05-07 10:44 37.55060 21.84013 35156 ft 499 kts 120°
2026-05-07 10:45 37.51694 21.91659 35156 ft 499 kts 120°
2026-05-07 10:45 37.48345 21.99258 35154 ft 499 kts 120°
2026-05-07 10:46 37.44975 22.06889 35149 ft 499 kts 120°
2026-05-07 10:46 37.41596 22.14523 35152 ft 499 kts 120°
2026-05-07 10:47 37.38213 22.22163 35159 ft 499 kts 120°
2026-05-07 10:47 37.34819 22.29785 35154 ft 499 kts 120°
2026-05-07 10:48 37.31420 22.37407 35156 ft 500 kts 120°
2026-05-07 10:48 37.28023 22.45034 35155 ft 500 kts 120°
2026-05-07 10:49 37.24614 22.52634 35158 ft 500 kts 120°
2026-05-07 10:49 37.21193 22.60237 35161 ft 500 kts 120°
2026-05-07 10:50 37.17771 22.67832 35161 ft 500 kts 120°
2026-05-07 10:50 37.14349 22.75429 35161 ft 500 kts 120°
2026-05-07 10:51 37.10919 22.83019 35158 ft 501 kts 120°
2026-05-07 10:51 37.07483 22.90606 35158 ft 501 kts 120°
2026-05-07 10:52 37.04043 22.98187 35162 ft 501 kts 120°
2026-05-07 10:52 37.00593 23.05753 35160 ft 500 kts 120°
2026-05-07 10:53 36.97143 23.13310 35159 ft 501 kts 120°
2026-05-07 10:53 36.93692 23.20871 35160 ft 500 kts 120°
2026-05-07 10:54 36.90254 23.28370 35159 ft 500 kts 120°
2026-05-07 10:54 36.86790 23.35908 35161 ft 500 kts 120°
2026-05-07 10:55 36.83325 23.43447 35163 ft 500 kts 120°
2026-05-07 10:55 36.79859 23.50960 35165 ft 500 kts 120°
2026-05-07 10:56 36.76388 23.58467 35169 ft 499 kts 120°
2026-05-07 10:56 36.72140 23.65217 35136 ft 496 kts 138°
2026-05-07 10:57 36.69635 23.68167 34890 ft 495 kts 138°
2026-05-07 10:57 36.67127 23.71099 34655 ft 495 kts 138°
2026-05-07 10:57 36.64614 23.74024 34418 ft 494 kts 138°
2026-05-07 10:57 36.62101 23.76944 34181 ft 494 kts 138°
2026-05-07 10:58 36.59589 23.79860 33917 ft 494 kts 138°
2026-05-07 10:58 36.57068 23.82781 33648 ft 495 kts 138°
2026-05-07 10:58 36.54550 23.85699 33379 ft 495 kts 138°
2026-05-07 10:58 36.52030 23.88616 33118 ft 496 kts 138°
2026-05-07 10:59 36.49503 23.91543 32856 ft 496 kts 138°
2026-05-07 10:59 36.46980 23.94468 32597 ft 497 kts 138°
2026-05-07 10:59 36.44445 23.97403 32348 ft 498 kts 138°
2026-05-07 10:59 36.41909 24.00339 31414 ft 500 kts 138°
2026-05-07 11:00 36.39343 24.03307 30231 ft 505 kts 138°
2026-05-07 11:00 36.36767 24.06288 28929 ft 508 kts 137°
2026-05-07 11:00 36.34210 24.09238 27747 ft 508 kts 137°
2026-05-07 11:00 36.31617 24.12224 26450 ft 510 kts 137°
2026-05-07 11:01 36.29008 24.15223 25143 ft 513 kts 137°
2026-05-07 11:01 36.26388 24.18234 23881 ft 515 kts 137°
2026-05-07 11:01 36.23761 24.21251 22697 ft 513 kts 137°
2026-05-07 11:01 36.21180 24.24218 21862 ft 503 kts 137°
2026-05-07 11:02 36.18615 24.27166 20974 ft 498 kts 137°
2026-05-07 11:02 36.16098 24.30052 20233 ft 490 kts 137°
2026-05-07 11:02 36.13612 24.32895 19424 ft 485 kts 137°
2026-05-07 11:02 36.11142 24.35719 18666 ft 480 kts 137°
2026-05-07 11:03 36.08700 24.38507 17878 ft 475 kts 137°
2026-05-07 11:03 36.06289 24.41258 17119 ft 469 kts 137°
2026-05-07 11:03 36.03904 24.43985 16396 ft 464 kts 137°
2026-05-07 11:03 36.01549 24.46676 15697 ft 458 kts 137°
2026-05-07 11:04 35.99220 24.49328 15029 ft 453 kts 137°
2026-05-07 11:04 35.96917 24.51945 14433 ft 446 kts 137°
2026-05-07 11:04 35.94650 24.54521 13973 ft 440 kts 137°
2026-05-07 11:04 35.92412 24.57065 13447 ft 435 kts 137°
2026-05-07 11:05 35.90198 24.59577 12931 ft 430 kts 137°
2026-05-07 11:05 35.88013 24.62049 12422 ft 421 kts 137°
2026-05-07 11:05 35.85873 24.64468 11917 ft 413 kts 137°
2026-05-07 11:05 35.83773 24.66842 11425 ft 405 kts 137°
2026-05-07 11:06 35.81725 24.69159 10923 ft 392 kts 137°
2026-05-07 11:06 35.79775 24.71366 10457 ft 370 kts 136°
2026-05-07 11:06 35.77905 24.73482 9985 ft 362 kts 136°
2026-05-07 11:06 35.76084 24.75539 9469 ft 358 kts 136°
2026-05-07 11:07 35.74257 24.77602 8953 ft 354 kts 137°
2026-05-07 11:07 35.72453 24.79638 8437 ft 350 kts 137°
2026-05-07 11:07 35.70667 24.81651 7937 ft 345 kts 137°
2026-05-07 11:07 35.68906 24.83635 7444 ft 341 kts 137°
2026-05-07 11:08 35.67171 24.85589 6952 ft 333 kts 137°
2026-05-07 11:08 35.65507 24.87461 6477 ft 316 kts 137°
2026-05-07 11:08 35.63922 24.89239 5964 ft 301 kts 137°
2026-05-07 11:08 35.62406 24.90942 5467 ft 290 kts 137°
2026-05-07 11:09 35.60924 24.92610 5053 ft 288 kts 137°
2026-05-07 11:09 35.59458 24.94260 4674 ft 284 kts 137°
2026-05-07 11:09 35.58008 24.95888 4288 ft 280 kts 137°
2026-05-07 11:09 35.56578 24.97492 3916 ft 277 kts 137°
2026-05-07 11:10 35.55164 24.99074 3556 ft 273 kts 137°
2026-05-07 11:10 35.53766 25.00640 3180 ft 271 kts 137°
2026-05-07 11:10 35.52380 25.02189 2806 ft 268 kts 137°
2026-05-07 11:10 35.51471 25.03205 2556 ft 266 kts 137°
2026-05-07 11:11 35.50121 25.04716 2183 ft 258 kts 137°
2026-05-07 11:11 35.48834 25.06155 1918 ft 241 kts 137°
2026-05-07 11:11 35.47657 25.07471 1899 ft 218 kts 137°
2026-05-07 11:11 35.46554 25.08654 1908 ft 203 kts 145°
2026-05-07 11:12 35.45425 25.09545 1910 ft 182 kts 147°
2026-05-07 11:12 35.44429 25.10329 1908 ft 159 kts 147°
2026-05-07 11:12 35.43517 25.11049 1909 ft 153 kts 147°
2026-05-07 11:12 35.42634 25.11750 1906 ft 150 kts 147°
2026-05-07 11:13 35.41757 25.12444 1913 ft 150 kts 147°
2026-05-07 11:13 35.40881 25.13131 1909 ft 150 kts 149°
2026-05-07 11:13 35.39881 25.13345 1785 ft 148 kts 192°
2026-05-07 11:13 35.38876 25.13073 1761 ft 148 kts 193°
2026-05-07 11:14 35.37873 25.12776 1715 ft 149 kts 192°
2026-05-07 11:14 35.36842 25.12742 1566 ft 150 kts 176°
2026-05-07 11:14 35.35835 25.12996 1215 ft 147 kts 146°
2026-05-07 11:14 35.34961 25.13662 823 ft 149 kts 143°
2026-05-07 11:15 35.34295 25.14581 518 ft 142 kts 112°
2026-05-07 11:15 35.34118 25.15718 269 ft 134 kts 88°
2026-05-07 11:15 35.34053 25.16859 105 ft 134 kts 93°
2026-05-07 11:15 35.33990 25.17803 93 ft 74 kts 95°
2026-05-07 11:16 35.33922 25.18095 92 ft 21 kts 130°
2026-05-07 11:16 35.33873 25.18119 93 ft 4 kts 250°
2026-05-07 11:16 35.33873 25.18047 92 ft 15 kts 276°
2026-05-07 11:16 35.33884 25.17921 93 ft 14 kts 276°
2026-05-07 11:17 35.33890 25.17813 92 ft 8 kts 274°
2026-05-07 11:17 35.33894 25.17752 92 ft 7 kts 275°
2026-05-07 11:17 35.33898 25.17696 94 ft 6 kts 275°
2026-05-07 11:17 35.33899 25.17644 91 ft 5 kts 252°
2026-05-07 11:18 35.33853 25.17618 92 ft 8 kts 218°
2026-05-07 11:18 35.33853 25.17563 91 ft 6 kts 286°
2026-05-07 11:18 35.33864 25.17548 92 ft 0 kts 326°